Angoon, AK

12:04 AM AKDT on August 24, 2017 (GMT -0800)
Angoon

Weather History for PAGN - December, 2013

Change the Weather History Date:

Saturday, December 21, 2013

  Actual Average (PASI) Record (PASI)
Temperature  
Mean Temperature 27 °F -  
Max Temperature 31 °F 38 °F 51 °F (1960)
Min Temperature 24 °F 30 °F 10 °F (1971)
Degree Days  
Heating Degree Days 38    
Moisture  
Dew Point 25 °F    
Average Humidity 90    
Maximum Humidity 96    
Minimum Humidity 80    
Precipitation  
Precipitation 0.01 in - - ()
Sea Level Pressure  
Sea Level Pressure 29.91 in    
Wind  
Wind Speed 7 mph (ENE)    
Max Wind Speed 10 mph    
Max Gust Speed -    
Visibility 7 miles    
Events Snow    
Averages and records for this station are not official NWS values.
T = Trace of Precipitation, MM = Missing Value Source: NWS Daily Summary

Daily Weather History Graph

Daily Weather History Graph

Search for Another Location

Airport or City:

Trip Planner

Search our weather history database for the weather conditions in past years. The results will help you decide how hot, cold, wet, or windy it might be!

Date:

Astronomy

Dec. 21, 2013 Rise Set
Actual Time 8:39 AM AKST 3:14 PM AKST
Civil Twilight 7:48 AM AKST 4:05 PM AKST
Nautical Twilight 6:56 AM AKST 4:56 PM AKST
Astronomical Twilight 6:08 AM AKST 5:44 PM AKST
Moon 8:31 PM AKST (12/21) 10:19 AM AKST (12/21)
Length of Visible Light 8h 16m
Length of Day
6h 35m
Waning Gibbous, 83% of the Moon is Illuminated
Dec 21
Waning Gibbous
Dec 25
Last Quarter
Jan 1
New
Jan 7
First Quarter
Jan 15
Full

Hourly Weather History & Observations

Time (AKST) Temp. Windchill Dew Point Humidity Pressure Visibility Wind Dir Wind Speed Gust Speed Precip Events Conditions
12:56 AM 25.2 °F 18.3 °F 22.1 °F 88% 29.93 in 10.0 mi ENE 5.8 mph - N/A   Overcast
1:07 AM 26.6 °F 19.1 °F 23.0 °F 86% 29.92 in 10.0 mi ENE 6.9 mph - N/A   Overcast
1:23 AM 26.6 °F 19.1 °F 21.2 °F 80% 29.93 in 10.0 mi NE 6.9 mph - N/A   Overcast
1:56 AM 26.1 °F 18.4 °F 22.1 °F 85% 29.95 in 10.0 mi NE 6.9 mph - N/A   Overcast
2:56 AM 24.8 °F 16.9 °F 21.2 °F 86% 29.93 in 10.0 mi ENE 6.9 mph - N/A   Overcast
3:56 AM 26.1 °F 17.6 °F 22.1 °F 85% 29.94 in 10.0 mi NE 8.1 mph - N/A   Overcast
4:56 AM 26.1 °F 18.4 °F 22.1 °F 85% 29.94 in 10.0 mi NE 6.9 mph - N/A   Overcast
5:16 AM 26.6 °F 18.2 °F 21.2 °F 80% 29.95 in 10.0 mi ENE 8.1 mph - N/A   Overcast
5:56 AM 26.6 °F 20.0 °F 21.2 °F 80% 29.94 in 10.0 mi ENE 5.8 mph - N/A   Overcast
6:56 AM 26.1 °F 18.4 °F 22.1 °F 85% 29.96 in 10.0 mi ENE 6.9 mph - N/A   Overcast
7:56 AM 26.1 °F 18.4 °F 23.0 °F 88% 29.96 in 10.0 mi ENE 6.9 mph - N/A   Overcast
8:56 AM 26.1 °F 18.4 °F 22.1 °F 85% 29.96 in 10.0 mi NE 6.9 mph - N/A   Mostly Cloudy
9:56 AM 26.1 °F 17.6 °F 23.0 °F 88% 29.98 in 10.0 mi ENE 8.1 mph - N/A   Mostly Cloudy
10:56 AM 27.1 °F 17.5 °F 23.0 °F 84% 29.98 in 10.0 mi NE 10.4 mph - N/A   Mostly Cloudy
11:56 AM 26.6 °F 19.1 °F 24.8 °F 93% 29.97 in 10.0 mi NE 6.9 mph - N/A   Overcast
12:56 PM 28.0 °F 20.8 °F 25.2 °F 89% 29.96 in 10.0 mi ENE 6.9 mph - N/A   Partly Cloudy
1:56 PM 28.0 °F 20.0 °F 25.2 °F 89% 29.94 in 10.0 mi ENE 8.1 mph - N/A   Overcast
2:56 PM 28.4 °F 19.7 °F 24.8 °F 86% 29.93 in 10.0 mi ENE 9.2 mph - N/A   Overcast
3:56 PM 29.1 °F 22.1 °F 26.1 °F 88% 29.93 in 10.0 mi Variable 6.9 mph - 0.00 in   Overcast
4:48 PM 28.4 °F 21.2 °F 26.6 °F 93% 29.91 in 3.0 mi ENE 6.9 mph - 0.00 in Snow Light Snow
4:56 PM 28.0 °F 21.7 °F 26.1 °F 92% 29.92 in 2.5 mi ENE 5.8 mph - 0.00 in Snow Light Snow
5:03 PM 28.4 °F 20.4 °F 26.6 °F 93% 29.91 in 2.0 mi ENE 8.1 mph - 0.00 in Snow Light Snow
5:07 PM 28.4 °F 21.2 °F 26.6 °F 93% 29.91 in 1.8 mi ENE 6.9 mph - 0.00 in Snow Light Snow
5:19 PM 28.4 °F 21.2 °F 26.6 °F 93% 29.90 in 1.5 mi ENE 6.9 mph - 0.00 in Snow Light Snow
5:44 PM 28.4 °F 22.2 °F 26.6 °F 93% 29.90 in 2.0 mi ENE 5.8 mph - 0.00 in Snow Light Snow
5:56 PM 28.4 °F 21.2 °F 26.6 °F 93% 29.90 in 3.0 mi ENE 6.9 mph - N/A Snow Light Snow
6:14 PM 28.4 °F 22.2 °F 26.6 °F 93% 29.90 in 4.0 mi Variable 5.8 mph - 0.00 in Snow Light Snow
6:56 PM 28.0 °F 21.7 °F 27.1 °F 96% 29.91 in 5.0 mi ENE 5.8 mph - 0.00 in Snow Light Snow
7:15 PM 28.4 °F 21.2 °F 26.6 °F 93% 29.90 in 5.0 mi ENE 6.9 mph - 0.00 in Snow Light Snow
7:20 PM 28.4 °F 22.2 °F 26.6 °F 93% 29.89 in 5.0 mi ENE 5.8 mph - 0.01 in Snow Light Snow
7:56 PM 29.1 °F 23.0 °F 28.0 °F 96% 29.89 in 8.0 mi ENE 5.8 mph - 0.01 in Snow Light Snow
8:24 PM 28.4 °F 20.4 °F 26.6 °F 93% 29.87 in 2.5 mi NE 8.1 mph - 0.00 in Snow Light Snow
8:34 PM 28.4 °F 20.4 °F 26.6 °F 93% 29.87 in 5.0 mi ENE 8.1 mph - 0.00 in Snow Light Snow
8:56 PM 28.4 °F 21.2 °F 26.6 °F 93% 29.86 in 3.0 mi East 6.9 mph - N/A Snow Light Snow
8:59 PM 28.4 °F 20.4 °F 26.6 °F 93% 29.86 in 2.0 mi East 8.1 mph - 0.00 in Snow Light Snow
9:04 PM 28.4 °F 20.4 °F 26.6 °F 93% 29.85 in 3.0 mi ENE 8.1 mph - 0.00 in Snow Light Snow
9:56 PM 29.1 °F 20.6 °F 27.1 °F 92% 29.85 in 7.0 mi ENE 9.2 mph - 0.00 in Snow Light Snow
10:56 PM 30.0 °F 23.2 °F 28.0 °F 92% 29.83 in 10.0 mi Variable 6.9 mph - 0.00 in   Overcast
11:20 PM 30.2 °F 23.4 °F 28.4 °F 93% 29.81 in 4.0 mi ENE 6.9 mph - 0.00 in Snow Light Snow
11:56 PM 31.1 °F 24.5 °F 29.1 °F 92% 29.80 in 10.0 mi ENE 6.9 mph - 0.00 in   Overcast